Terminal Aerodrome Forecast
Issued by NWS Des Moines, IA

Home | Current Version | Previous Version | Text Only | Print | Product List | Glossary On
Versions: 1 2 3 4 5 6 7 8 9 10 11 12 13 14 15 16 17 18 19 20 21 22 23 24 25 26 27 28 29 30 31 32 33 34 35 36 37 38 39 40 41 42 43 44 45
550
FTUS43 KDMX 081737
TAFALO
TAF
KALO 081737Z 0818/0918 33023G30KT 2SM -SHSN BLSN SCT015 OVC025
      TEMPO 0818/0822 1SM -SN BLSN BKN015
     FM082300 32019G27KT 3SM -SN BLSN OVC015
     FM091500 32021G28KT 6SM BLSN OVC020=

USA.gov is the U.S. government's official web portal to all federal, state and local government web resources and services.